Location: ?
(35.3436°N, 139.3168°E)
Time: 11:02:03
(UTC+00:00)

X-37B - Pass Details

Date: 17 May 2021
Orbit: 386 x 389 km, 45.0° (Epoch: 10 June)

Event Time Altitude Azimuth Distance (km) Brightness Sun altitude
Rises 11:20:22 0° 284° (WNW) 2,269 5.6 -17.8°
Reaches altitude 10° 11:23:03 10° 260° (W) 1,410 3.9 -18.2°
Maximum altitude 11:24:58 15° 223° (SW) 1,147 3.0 -18.5°
Enters shadow 11:25:17 15° 215° (SW) 1,155 2.9 -18.5°
